Regional Weather Roundup
Issued by NWS

Home | Current Version | Previous Version | Graphics & Text | Print | Product List | Glossary Off
Versions: 1 2 3 4 5 6 7 8 9 10 11 12 13 14 15 16 17 18 19 20 21 22 23 24 25 26 27 28 29 30 31 32 33 34 35 36 37 38 39 40 41 42 43 44 45 46 47 48 49 50

000
ASUS43 KTOP 032308
RWRKS

WEATHER ROUNDUP FOR KANSAS
NATIONAL WEATHER SERVICE GOODLAND KS
600 PM CDT MON AUG 03 2015

NOTE:  "FAIR" INDICATES FEW OR NO CLOUDS BELOW 12,000 FEET WITH NO
SIGNIFICANT WEATHER AND/OR OBSTRUCTIONS TO VISIBILITY.

KSZ001>006-013>018-027>032-041>047-040000-
NORTHWEST KANSAS

CITY           SKY/WX    TMP DP  RH WIND       PRES   REMARKS
GOODLAND       CLOUDY    86  61  42 SE15G22   29.98F
HAYS           MOSUNNY   91  61  35 SE10      29.90F
HILL CITY      MOSUNNY   94  65  38 SE8       29.91F HX  96
RUSSELL        PTSUNNY   92  65  40 S10       29.89S
$$

KSZ061>065-074>080-084>089-040000-
SOUTHWEST KANSAS

CITY           SKY/WX    TMP DP  RH WIND       PRES   REMARKS
DODGE CITY     MOSUNNY   89  63  41 S14G21    29.93F
ELKHART          N/A     81  65  58 SE9         N/A
GARDEN CITY    PTSUNNY   87  64  46 SE12      29.93F
GREAT BEND     MOSUNNY   91  66  43 S12       29.90F
LIBERAL        MOSUNNY   88  63  42 SE13      29.93S
PRATT          PTSUNNY   88  63  42 S10       29.94S
$$

KSZ066>073-081>083-090>101-040000-
SOUTHEAST KANSAS

CITY           SKY/WX    TMP DP  RH WIND       PRES   REMARKS
CHANUTE        MOSUNNY   90  67  46 S9        29.91S
COFFEYVILLE    PTSUNNY   92  65  40 S8        29.90F
HUTCHINSON     PTSUNNY   91  69  48 S12       29.91F HX  96
MEDICINE LODGE   N/A     90  68  48 SE6       29.90F
NEWTON         PTSUNNY   90  68  48 S10       29.95S
PARSONS        MOSUNNY   90  67  46 S6        29.92F
WICHITA INTL   PTSUNNY   91  69  48 S12       29.90F HX  96
WICHITA JABRA  PTSUNNY   90  70  51 S10       29.91F HX  95
WICHITA MCCONL PTSUNNY   91  68  47 S7        29.91F HX  95
$$

KSZ007>012-019>026-033>040-048>060-102>105-040000-
NORTHEAST KANSAS

CITY           SKY/WX    TMP DP  RH WIND       PRES   REMARKS
CONCORDIA      MOSUNNY   90  72  55 NE8       29.89F HX  97
EMPORIA        MOSUNNY   91  66  43 S5        29.90F
LAWRENCE       MOSUNNY   91  73  55 SE7       29.88F HX  99
MANHATTAN      MOSUNNY   93  69  45 S7        29.87F HX  98
MARYSVILLE     MOSUNNY   86  77  74 NE10G16   29.90S HX  97
OLATHE IND     MOSUNNY   93  68  43 VRB5      29.90F HX  97
OLATHE EXE     MOSUNNY   91  67  44 W6        29.90S
SALINA         PTSUNNY   93  68  43 SE8       29.88F HX  97
TOPEKA BILLARD SUNNY     92  70  48 SE6       29.88F HX  97
TOPEKA FORBES  SUNNY     94  67  41 S5        29.89F HX  97
$$


USA.gov is the U.S. government's official web portal to all federal, state and local government web resources and services.